Flag for Canada Weather past 2 weeks in Stonewall, Manitoba, Canada

Now
-11 °F

Snow flurries. Scattered clouds.


Feels Like: -35 °F
Forecast: -17 / 4 °F
Wind: 17 mph from Northeast

Location: Winnipeg Int. Airportman.

Current Time: Jan 31, 2015 at 12:08:53 PM

Latest Report: Jan 31, 2015 at 11:00 AM


Visibility: 6 mi

Pressure: 30.66 "Hg

Humidity: 70%

Dew point: -18 °F

Location of StonewallLocation

Historic Weather in Stonewall — Graph

°F

Stonewall temperature yesterday

Maximum temperature yesterday: 18 °F (at 4:00 PM)
Minimum temperature yesterday: 1 °F (at 12:00 AM)
Average temperature yesterday: 10 °F

Past Weeks' High & Low Weather Summary

 TemperatureHumidityPressure
High37 °F (Jan 22, 7:00 PM)100% (Jan 27, 11:00 AM)30.66 "Hg (Jan 27, 11:00 AM)
Low-11 °F (Jan 31, 10:00 AM)62% (Jan 25, 2:00 AM)29.36 "Hg (Jan 17, 3:00 AM)
Average19 °F81%30.01 "Hg
* Reported Jan 16 11:00 AM — Jan 31 11:00 AM, Stonewall, Weather by CustomWeather, © 2014

Note: Actual official high and low records may vary slightly from our data, if they occured in-between our weather recording intervals... More about our weather records

Advertising

Stonewall weather history for previous 24 hours

 ConditionsComfort  
Time TempWeatherWind HumidityBarometerVisibility
11:00 AM
Jan 31
-11 °FSnow flurries. Scattered clouds.17 mph70%30.66 "Hg6 mi
10:00 AM-11 °FSnow flurries. Scattered clouds.17 mph70%30.64 "Hg6 mi
9:00 AM-9 °FScattered clouds.16 mph64%30.61 "Hg15 mi
8:00 AM-9 °FPassing clouds.16 mph70%30.58 "Hg15 mi
7:00 AM-8 °FPassing clouds.16 mph70%30.55 "Hg15 mi
6:00 AM-6 °FPassing clouds.18 mph64%30.53 "Hg15 mi
5:00 AM-4 °FPassing clouds.21 mph65%30.47 "Hg15 mi
4:00 AM0 °FPassing clouds.16 mph71%30.47 "Hg15 mi
3:00 AM1 °FPassing clouds.17 mph71%30.43 "Hg15 mi
2:00 AM3 °FPassing clouds.18 mph72%30.40 "Hg15 mi
1:00 AM5 °FPassing clouds.15 mph78%30.40 "Hg15 mi
12:00 AM7 °FPassing clouds.16 mph72%30.40 "Hg15 mi
11:00 PM
Jan 30
9 °FPassing clouds.20 mph72%30.37 "Hg15 mi
10:00 PM14 °FOvercast.20 mph73%30.32 "Hg15 mi
9:00 PM14 °FMostly cloudy.14 mph85%30.30 "Hg15 mi
8:00 PM16 °FLight snow. Overcast.17 mph79%30.27 "Hg15 mi
7:00 PM16 °FLight snow. Overcast.16 mph86%30.26 "Hg12 mi
6:00 PM18 °FOvercast.13 mph86%30.24 "Hg12 mi
5:00 PM18 °FOvercast.3 mph86%30.22 "Hg15 mi
4:00 PM18 °FOvercast.6 mph79%30.21 "Hg15 mi
3:00 PM16 °FOvercast.10 mph86%30.20 "Hg15 mi
2:00 PM16 °FOvercast.13 mph79%30.21 "Hg15 mi
1:00 PM14 °FOvercast.16 mph79%30.23 "Hg6 mi
12:00 PM12 °FMostly cloudy.17 mph79%30.27 "Hg6 mi
Weather by CustomWeather, © 2014

See weather overviewHow to use our weather pages